Location: Cherry Springs State Park
(41.6616°N, 77.8240°W)
Time: 01:04:51
(UTC-04:00)

Amateur Radio Satellites - All Passes

Search period start: 31 July 2015 00:34
Search period end: 01 August 2015 00:34
Location: Cherry Springs State Park, 41.6616°N, 77.8240°W

Satellite Date Start Highest point End Downlink Frequencies (MHz)
Time Altitude Azimuth
CUBEBUG 1 31 Jul 00:35:56 00:39:46 28° 265° (W) 00:43:31 437.445
ITUPSAT 1 31 Jul 00:36:34 00:37:26 11° 60° (ENE) 00:38:35 437.325
BEESAT 3 31 Jul 00:37:54 00:41:59 90° 159° (SSE) 00:46:06 437.485
UNISAT 6 31 Jul 00:39:25 00:43:35 32° 290° (WNW) 00:47:44 437.425
AUBIESAT-1 31 Jul 00:46:17 00:48:19 12° 304° (NW) 00:50:08 437.475
POLYITAN 1 31 Jul 00:52:22 00:56:32 52° 287° (WNW) 01:00:42 437.675
VELOX 1 31 Jul 01:00:24 01:00:49 10° 273° (W) 01:00:55 145.980
AIST 1 31 Jul 01:00:39 01:03:46 19° 272° (W) 01:06:46
ESTCUBE 1 31 Jul 01:03:51 01:06:17 14° 271° (W) 01:08:30 437.505/2401.250
POPSAT HIP 1 31 Jul 01:10:19 01:14:11 34° 289° (WNW) 01:18:01 437.405
SPROUT 31 Jul 01:17:37 01:21:29 33° 264° (W) 01:25:21 437.525
QB50P2 31 Jul 01:17:46 01:21:25 28° 291° (WNW) 01:25:02 145.880/145.840
AIST 2 31 Jul 01:18:36 01:22:35 41° 117° (ESE) 01:26:39 435.215
BUGSAT 1 31 Jul 01:22:25 01:26:12 38° 288° (WNW) 01:29:59 437.445
Oscar 19 31 Jul 01:24:54 01:27:19 14° 88° (E) 01:30:00 437.125/150
TIGRISAT 31 Jul 01:25:00 01:27:17 13° 297° (WNW) 01:29:20 435.000
ANTELSAT 31 Jul 01:26:20 01:28:23 12° 297° (WNW) 01:30:13 437.575/2403.000
BEESAT 31 Jul 01:29:49 01:34:07 35° 70° (ENE) 01:38:30 436.000
BEESAT 2 31 Jul 01:34:10 01:37:55 33° 311° (NW) 01:41:39 435.950
ISS 31 Jul 01:34:13 01:36:06 14° 0° (N) 01:37:58 145.825
PHONESAT 2.4 31 Jul 01:34:26 01:37:45 39° 199° (SSW) 01:41:02 2401.200-2431.200
TISAT 1 31 Jul 01:35:23 01:39:11 32° 263° (W) 01:42:57 437.305
Cosmos 2504 31 Jul 01:44:04 01:45:54 11° 76° (ENE) 01:48:19 435.465 / 435.565
DUCHIFAT 1 31 Jul 01:44:52 01:47:34 16° 294° (WNW) 01:50:08 145.980
QB50P1 31 Jul 01:47:09 01:49:39 15° 295° (WNW) 01:52:01 145.935-145.965
NANOSAT C BR1 31 Jul 01:49:04 01:51:29 15° 295° (WNW) 01:53:45 145.865
SWISSCUBE 31 Jul 01:49:40 01:54:23 60° 74° (ENE) 01:59:09 437.505
O/OREOS (USA 219) 31 Jul 01:58:12 02:02:22 40° 107° (ESE) 02:06:36 437.305
Cosmos 2491 31 Jul 02:01:43 02:08:26 25° 278° (W) 02:14:49 435.465 / 435.565
ITUPSAT 1 31 Jul 02:09:49 02:14:38 86° 80° (E) 02:19:30 437.325
Gurwin Techsat 1B 31 Jul 02:13:02 02:14:33 11° 86° (E) 02:16:25 435.225
BEESAT 3 31 Jul 02:18:39 02:20:34 13° 322° (NW) 02:22:23 437.485
YUBILEINY 31 Jul 02:22:34 02:30:46 43° 288° (WNW) 02:38:56 435.215
STARS 31 Jul 02:24:17 02:26:06 13° 63° (ENE) 02:28:09 437.465
ITAMSAT 1 31 Jul 02:41:50 02:45:25 19° 91° (E) 02:49:11 435.822/435.867
RS-15 31 Jul 02:42:20 02:50:40 22° 354° (N) 02:59:13 29.354- 29.394
KKS-1 31 Jul 02:45:09 02:49:07 34° 70° (ENE) 02:53:08 437.445
AIST 2 31 Jul 02:57:53 03:01:20 23° 315° (NW) 03:04:44 435.215
Oscar 19 31 Jul 03:02:07 03:07:17 73° 286° (WNW) 03:12:27 437.125/150
BEESAT 31 Jul 03:08:04 03:12:03 25° 266° (W) 03:15:58 436.000
ISS 31 Jul 03:10:39 03:13:22 24° 20° (NNE) 03:16:07 145.825
PHONESAT 2.4 31 Jul 03:14:05 03:15:11 11° 213° (SSW) 03:16:10 2401.200-2431.200
AO-7 31 Jul 03:22:21 03:23:49 11° 83° (E) 03:26:05 29.400- 29.500
JAS-2 31 Jul 03:24:54 03:31:29 30° 91° (E) 03:38:11 435.910
MOZHAYETS 4 31 Jul 03:28:00 03:29:54 13° 63° (ENE) 03:32:01
Cosmos 2504 31 Jul 03:29:43 03:36:45 75° 95° (E) 03:44:21 435.465 / 435.565
SWISSCUBE 31 Jul 03:29:57 03:32:43 15° 271° (W) 03:35:15 437.505
O/OREOS (USA 219) 31 Jul 03:38:31 03:42:00 21° 305° (NW) 03:45:25 437.305
Gurwin Techsat 1B 31 Jul 03:50:00 03:55:21 86° 287° (WNW) 04:00:41 435.225
STARS 31 Jul 03:57:44 04:02:04 65° 258° (WSW) 04:06:26 437.465
ITAMSAT 1 31 Jul 04:20:16 04:25:17 51° 289° (WNW) 04:30:17 435.822/435.867
KKS-1 31 Jul 04:22:20 04:25:51 22° 267° (W) 04:29:16 437.445
ISS 31 Jul 04:46:48 04:50:02 61° 218° (SW) 04:53:14 145.825
RS-15 31 Jul 04:58:14 05:08:06 31° 28° (NNE) 05:18:31 29.354- 29.394
MOZHAYETS 4 31 Jul 05:01:56 05:06:34 74° 258° (WSW) 05:11:14
DANDE 31 Jul 05:05:09 05:08:28 46° 99° (E) 05:11:13 436.750
JAS-2 31 Jul 05:09:15 05:16:56 61° 289° (WNW) 05:24:33 435.910
AO-7 31 Jul 05:10:12 05:18:30 65° 103° (ESE) 05:26:45 29.400- 29.500
GONETS M04 31 Jul 05:10:44 05:15:39 17° 79° (E) 05:21:03
CUBESAT XI-V 31 Jul 05:17:35 05:20:11 15° 64° (ENE) 05:22:58 437.345
HORYU 2 31 Jul 05:18:01 05:22:33 85° 286° (WNW) 05:27:03 437.375
Cosmos 2504 31 Jul 05:24:47 05:30:02 20° 298° (WNW) 05:35:14 435.465 / 435.565
Gurwin Techsat 1B 31 Jul 05:32:26 05:34:37 12° 301° (WNW) 05:36:32 435.225
CUSAT 1 31 Jul 05:35:14 05:37:49 26° 283° (WNW) 05:40:08 437.405
Cubesat XI-IV 31 Jul 06:22:42 06:25:53 16° 89° (E) 06:29:18 437.490
STRAND 1 31 Jul 06:52:13 06:57:04 45° 71° (ENE) 07:01:59 437.568
CUBESAT XI-V 31 Jul 06:52:33 06:57:12 60° 260° (W) 07:01:50 437.345
PRISM 31 Jul 06:54:24 06:58:12 34° 70° (ENE) 07:02:02 437.425
JAS-2 31 Jul 06:56:53 07:00:39 14° 306° (NW) 07:04:00 435.910
GONETS M04 31 Jul 07:02:40 07:11:24 89° 90° (E) 07:20:09
AO-7 31 Jul 07:03:46 07:10:49 31° 303° (WNW) 07:17:40 29.400- 29.500
RS-15 31 Jul 07:10:53 07:22:43 81° 56° (NE) 07:34:59 29.354- 29.394
CUTE-I 31 Jul 07:17:35 07:22:48 53° 100° (E) 07:27:59 437.470
Cosmos 2499 31 Jul 07:39:25 07:45:53 36° 86° (E) 07:52:56 435.465 / 435.565
BRITE-PL 31 Jul 07:46:27 07:48:09 12° 90° (E) 07:50:09 437.365/2234.400
Cubesat XI-IV 31 Jul 08:01:14 08:06:32 63° 288° (WNW) 08:11:46 437.490
GOMX 1 31 Jul 08:03:45 08:05:06 11° 89° (E) 08:06:47 467.674
HO-68 31 Jul 08:09:41 08:11:40 12° 84° (E) 08:14:14 435.675
BEESAT 2 31 Jul 08:15:17 08:18:16 19° 43° (NE) 08:21:16 435.950
AUBIESAT-1 31 Jul 08:25:06 08:26:57 13° 56° (ENE) 08:29:03 437.475
PRISM 31 Jul 08:30:37 08:33:45 20° 267° (W) 08:36:47 437.425
STRAND 1 31 Jul 08:32:29 08:36:31 22° 268° (W) 08:40:26 437.568
SEEDS 31 Jul 08:56:09 08:58:32 15° 90° (E) 09:01:06 437.485
BEESAT 3 31 Jul 08:56:15 09:00:14 56° 54° (NE) 09:04:10 437.485
CUTE 1.7 + AOD 2 31 Jul 08:56:38 08:59:40 19° 91° (E) 09:02:50 437.475
CUTE-I 31 Jul 08:58:33 09:02:32 21° 296° (WNW) 09:06:22 437.470
GONETS M04 31 Jul 09:03:32 09:09:41 20° 300° (WNW) 09:15:25
CANX-2 31 Jul 09:04:26 09:08:01 26° 94° (E) 09:11:39 2200.000
BRITE-PL 31 Jul 09:22:48 09:27:06 61° 285° (WNW) 09:31:41 437.365/2234.400
PCSat 31 Jul 09:24:20 09:29:17 38° 112° (ESE) 09:34:18 145.827
RS-15 31 Jul 09:24:32 09:34:15 29° 255° (WSW) 09:43:43 29.354- 29.394
AAUSAT CUBESAT 2 31 Jul 09:24:52 09:28:00 21° 92° (E) 09:31:13 437.432
M-CUBED/EXP-1 PRIME 31 Jul 09:26:37 09:30:34 63° 69° (ENE) 09:34:54 437.505
Cosmos 2499 31 Jul 09:31:53 09:38:54 44° 287° (WNW) 09:46:24 435.465 / 435.565
DOVE 4 31 Jul 09:33:08 09:37:40 63° 101° (E) 09:42:30 437.250
GOMX 1 31 Jul 09:39:16 09:43:43 70° 284° (WNW) 09:48:28 467.674
AIST 2 31 Jul 09:40:08 09:43:52 30° 48° (NE) 09:47:35 435.215
CINEMA 3 31 Jul 09:50:46 09:55:14 44° 98° (E) 09:59:52 145.822/145.860
BEESAT 2 31 Jul 09:52:38 09:56:34 47° 242° (WSW) 10:00:25 435.950
HO-68 31 Jul 09:53:36 10:00:48 73° 104° (ESE) 10:07:59 435.675
ZACube-1 31 Jul 09:56:00 09:58:15 14° 89° (E) 10:00:43 437.345
AUBIESAT-1 31 Jul 09:57:05 10:01:04 68° 254° (WSW) 10:05:25 437.475
UNISAT 6 31 Jul 10:02:32 10:05:57 23° 67° (ENE) 10:09:31 437.425
POLYITAN 1 31 Jul 10:12:40 10:13:59 12° 63° (ENE) 10:15:30 437.675
SO-50 31 Jul 10:15:00 10:19:45 77° 120° (ESE) 10:24:39 436.795
UWE-3 31 Jul 10:16:02 10:20:02 30° 95° (E) 10:24:10 435.000/436.395/437.385
COMPASS 1 31 Jul 10:17:08 10:21:23 84° 285° (WNW) 10:25:36 437.405
FUNcube-1 31 Jul 10:17:10 10:20:43 23° 93° (E) 10:24:23 145.935
POPSAT HIP 1 31 Jul 10:28:44 10:31:22 17° 66° (ENE) 10:34:08 437.405
CUBEBUG 2 31 Jul 10:28:57 10:33:28 51° 99° (E) 10:38:05 437.445
SEEDS 31 Jul 10:30:31 10:34:38 47° 287° (WNW) 10:38:42 437.485
O/OREOS (USA 219) 31 Jul 10:31:04 10:31:53 10° 47° (NE) 10:32:56 437.305
Oscar 11 31 Jul 10:31:29 10:35:45 51° 99° (E) 10:40:00 145.826/435.025
CUTE 1.7 + AOD 2 31 Jul 10:31:45 10:35:45 37° 288° (WNW) 10:39:41 437.475
QB50P2 31 Jul 10:35:37 10:38:42 21° 67° (ENE) 10:41:53 145.880/145.840
BEESAT 3 31 Jul 10:35:45 10:37:45 13° 250° (WSW) 10:39:34 437.485
YUBILEINY 31 Jul 10:36:04 10:42:16 21° 61° (ENE) 10:48:48 435.215
BUGSAT 1 31 Jul 10:39:21 10:41:09 13° 65° (ENE) 10:43:09 437.445
CANX-2 31 Jul 10:40:13 10:43:55 28° 290° (WNW) 10:47:32 2200.000
TIGRISAT 31 Jul 10:45:19 10:49:35 64° 74° (ENE) 10:53:58 435.000
ANTELSAT 31 Jul 10:46:36 10:50:54 69° 75° (ENE) 10:55:20 437.575/2403.000
HUMSAT D 31 Jul 10:50:45 10:54:01 21° 93° (E) 10:57:23 437.325/437.525
DELFI C3 31 Jul 10:53:01 10:57:04 60° 100° (E) 11:01:03 145.870
AAUSAT CUBESAT 2 31 Jul 10:59:53 11:03:42 33° 289° (WNW) 11:07:26 437.432
DX 1 31 Jul 11:00:07 11:02:58 17° 92° (E) 11:05:57 434.975-435.025
DUCHIFAT 1 31 Jul 11:00:35 11:04:21 35° 71° (ENE) 11:08:12 145.980
QB50P1 31 Jul 11:02:56 11:06:49 38° 71° (ENE) 11:10:45 145.935-145.965
NANOSAT C BR1 31 Jul 11:04:34 11:08:28 39° 72° (ENE) 11:12:25 145.865
M-CUBED/EXP-1 PRIME 31 Jul 11:04:38 11:06:00 11° 269° (W) 11:07:08 437.505
PCSat 31 Jul 11:07:54 11:12:46 33° 310° (NW) 11:17:38 145.827
VELOX 1 31 Jul 11:11:08 11:13:14 14° 89° (E) 11:15:33 145.980
DOVE 4 31 Jul 11:12:29 11:15:04 15° 294° (WNW) 11:17:33 437.250
Cosmos 2491 31 Jul 11:13:21 11:17:30 15° 78° (ENE) 11:22:16 435.465 / 435.565
AIST 2 31 Jul 11:18:48 11:22:22 27° 246° (WSW) 11:25:49 435.215
ESTCUBE 1 31 Jul 11:19:13 11:20:42 12° 88° (E) 11:22:27 437.505/2401.250
CINEMA 3 31 Jul 11:28:41 11:32:11 21° 292° (WNW) 11:35:39 145.822/145.860
ZACube-1 31 Jul 11:30:32 11:35:01 58° 286° (WNW) 11:39:31 437.345
UNISAT 6 31 Jul 11:38:40 11:42:35 32° 264° (W) 11:46:34 437.425
HO-68 31 Jul 11:42:26 11:47:56 24° 302° (WNW) 11:53:13 435.675
POLYITAN 1 31 Jul 11:45:12 11:49:23 68° 259° (WSW) 11:53:35 437.675
UWE-3 31 Jul 11:52:34 11:56:30 28° 291° (WNW) 12:00:26 435.000/436.395/437.385
AIST 1 31 Jul 11:52:49 11:55:55 20° 89° (E) 11:59:09
FUNcube-1 31 Jul 11:52:58 11:57:07 35° 289° (WNW) 12:01:16 145.935
SO-50 31 Jul 11:57:28 12:00:54 19° 322° (NW) 12:04:18 436.795
POPSAT HIP 1 31 Jul 12:02:56 12:06:56 43° 262° (W) 12:10:57 437.405
AISAT 31 Jul 12:06:28 12:10:49 57° 100° (E) 12:15:10 437.250
CUBEBUG 2 31 Jul 12:06:42 12:09:49 18° 294° (WNW) 12:12:49 437.445
O/OREOS (USA 219) 31 Jul 12:07:33 12:12:10 82° 67° (ENE) 12:16:46 437.305
UKube-1 31 Jul 12:08:33 12:12:53 89° 319° (NW) 12:17:13 .
Oscar 11 31 Jul 12:08:52 12:11:33 16° 295° (WNW) 12:14:05 145.826/435.025
QB50P2 31 Jul 12:10:32 12:14:24 34° 263° (W) 12:18:15 145.880/145.840
BUGSAT 1 31 Jul 12:12:16 12:16:14 53° 260° (W) 12:20:12 437.445
CUBEBUG 1 31 Jul 12:23:48 12:28:00 49° 99° (E) 12:32:12 437.445
TIGRISAT 31 Jul 12:25:18 12:26:53 11° 273° (W) 12:28:14 435.000
HUMSAT D 31 Jul 12:25:54 12:29:51 34° 289° (WNW) 12:33:44 437.325/437.525
ANTELSAT 31 Jul 12:27:10 12:28:19 11° 273° (W) 12:29:10 437.575/2403.000
50 SAT 31 Jul 12:27:49 12:31:47 64° 285° (WNW) 12:35:42 437.505
DELFI C3 31 Jul 12:30:02 12:31:40 12° 296° (WNW) 12:33:05 145.870
YUBILEINY 31 Jul 12:31:32 12:40:24 85° 263° (W) 12:49:14 435.215
DX 1 31 Jul 12:35:21 12:39:27 41° 289° (WNW) 12:43:31 434.975-435.025
DUCHIFAT 1 31 Jul 12:37:13 12:40:18 19° 268° (W) 12:43:17 145.980
QB50P1 31 Jul 12:39:58 12:42:52 18° 268° (W) 12:45:39 145.935-145.965
Oscar 19 31 Jul 12:41:35 12:45:19 22° 65° (ENE) 12:49:12 437.125/150
NANOSAT C BR1 31 Jul 12:41:40 12:44:30 17° 269° (W) 12:47:13 145.865
VELOX 1 31 Jul 12:45:53 12:50:12 55° 287° (WNW) 12:54:30 145.980
ESTCUBE 1 31 Jul 12:53:38 12:58:07 66° 285° (WNW) 13:02:32 437.505/2401.250
SPROUT 31 Jul 13:03:33 13:07:36 39° 98° (E) 13:11:40 437.525
Cosmos 2491 31 Jul 13:04:23 13:13:09 81° 95° (E) 13:21:55 435.465 / 435.565
Cosmos 2504 31 Jul 13:15:22 13:22:04 27° 66° (ENE) 13:29:11 435.465 / 435.565
TISAT 1 31 Jul 13:19:11 13:23:03 35° 97° (E) 13:26:56 437.305
AIST 1 31 Jul 13:29:24 13:33:23 33° 285° (WNW) 13:37:19
Gurwin Techsat 1B 31 Jul 13:33:18 13:37:04 21° 64° (ENE) 13:41:01 435.225
JAS-2 31 Jul 13:41:12 13:43:24 12° 52° (NE) 13:46:04 435.910
AISAT 31 Jul 13:44:28 13:46:59 15° 296° (WNW) 13:49:19 437.250
SWISSCUBE 31 Jul 13:51:13 13:53:52 15° 89° (E) 13:56:43 437.505
ITAMSAT 1 31 Jul 13:59:43 14:04:14 31° 67° (ENE) 14:08:50 435.822/435.867
CUBEBUG 1 31 Jul 14:01:18 14:04:01 16° 295° (WNW) 14:06:34 437.445
ITUPSAT 1 31 Jul 14:11:01 14:14:38 22° 93° (E) 14:18:21 437.325
Oscar 19 31 Jul 14:19:25 14:24:22 48° 261° (W) 14:29:20 437.125/150
AO-7 31 Jul 14:19:57 14:25:36 21° 52° (NE) 14:31:32 29.400- 29.500
CUSAT 1 31 Jul 14:27:31 14:28:29 11° 70° (ENE) 14:29:48 437.405
YUBILEINY 31 Jul 14:30:49 14:36:03 17° 282° (WNW) 14:40:45 435.215
SPROUT 31 Jul 14:40:21 14:43:26 19° 293° (WNW) 14:46:23 437.525
TISAT 1 31 Jul 14:55:28 14:58:36 20° 293° (WNW) 15:01:39 437.305
Cosmos 2491 31 Jul 15:04:31 15:11:13 22° 298° (WNW) 15:17:33 435.465 / 435.565
Cosmos 2504 31 Jul 15:06:41 15:15:02 70° 266° (W) 15:23:34 435.465 / 435.565
BEESAT 31 Jul 15:06:55 15:11:44 82° 104° (ESE) 15:16:30 436.000
Gurwin Techsat 1B 31 Jul 15:11:30 15:16:42 54° 260° (W) 15:21:56 435.225
JAS-2 31 Jul 15:21:08 15:27:06 66° 72° (ENE) 15:33:56 435.910
SWISSCUBE 31 Jul 15:27:28 15:32:10 57° 287° (WNW) 15:36:49 437.505
ITAMSAT 1 31 Jul 15:38:59 15:43:42 33° 264° (W) 15:48:22 435.822/435.867
DANDE 31 Jul 15:41:34 15:44:59 37° 79° (ENE) 15:49:27 436.750
STARS 31 Jul 15:47:44 15:51:09 22° 93° (E) 15:54:39 437.465
ITUPSAT 1 31 Jul 15:48:13 15:52:43 40° 290° (WNW) 15:57:08 437.325
CUSAT 1 31 Jul 16:07:02 16:11:06 68° 261° (W) 16:16:31 437.405
AO-7 31 Jul 16:09:00 16:17:23 86° 71° (ENE) 16:25:49 29.400- 29.500
KKS-1 31 Jul 16:11:52 16:16:20 68° 102° (ESE) 16:20:46 437.445
HORYU 2 31 Jul 16:16:11 16:20:38 90° 77° (ENE) 16:25:08 437.375
BEESAT 31 Jul 16:47:01 16:48:58 12° 299° (WNW) 16:50:41 436.000
MOZHAYETS 4 31 Jul 16:57:22 17:01:13 26° 94° (E) 17:05:06
Cosmos 2504 31 Jul 17:02:25 17:05:59 13° 283° (WNW) 17:08:57 435.465 / 435.565
CUTE-I 31 Jul 17:03:29 17:05:35 13° 59° (ENE) 17:07:58 437.470
SO-50 31 Jul 17:07:16 17:09:53 14° 34° (NE) 17:12:38 436.795
JAS-2 31 Jul 17:08:33 17:13:02 20° 274° (W) 17:17:38 435.910
GONETS M04 31 Jul 17:12:49 17:21:03 45° 73° (ENE) 17:29:22
STARS 31 Jul 17:23:40 17:27:41 34° 290° (WNW) 17:31:39 437.465
DANDE 31 Jul 17:25:41 17:28:05 15° 264° (W) 17:30:40 436.750
Cosmos 2499 31 Jul 17:30:21 17:34:40 15° 56° (ENE) 17:39:37 435.465 / 435.565
Cubesat XI-IV 31 Jul 17:44:28 17:48:59 29° 67° (ENE) 17:53:36 437.490
KKS-1 31 Jul 17:50:22 17:52:28 13° 297° (WNW) 17:54:21 437.445
AO-7 31 Jul 18:05:24 18:11:19 20° 271° (W) 18:16:49 29.400- 29.500
PCSat 31 Jul 18:11:45 18:16:39 34° 50° (NE) 18:21:36 145.827
VERMONT LUNAR 31 Jul 18:18:00 18:19:37 13° 150° (SSE) 18:21:19 437.305
MOZHAYETS 4 31 Jul 18:34:20 18:38:28 32° 290° (WNW) 18:42:31
CUTE-I 31 Jul 18:39:35 18:44:58 87° 79° (E) 18:50:22 437.470
HO-68 31 Jul 18:40:58 18:42:35 11° 49° (NE) 18:44:39 435.675
SO-50 31 Jul 18:46:24 18:51:23 72° 55° (NE) 18:56:14 436.795
CUBESAT XI-V 31 Jul 18:49:15 18:53:24 32° 96° (E) 18:57:32 437.345
BRITE-PL 31 Jul 18:58:07 19:00:26 15° 66° (ENE) 19:02:53 437.365/2234.400
STRAND 1 31 Jul 19:04:00 19:06:37 14° 89° (E) 19:09:30 437.568
GONETS M04 31 Jul 19:09:53 19:17:50 40° 273° (W) 19:25:40
GOMX 1 31 Jul 19:13:13 19:14:40 12° 65° (ENE) 19:16:18 467.674
Cosmos 2499 31 Jul 19:21:01 19:29:45 70° 79° (E) 19:38:38 435.465 / 435.565
Cubesat XI-IV 31 Jul 19:24:00 19:28:59 38° 263° (W) 19:33:56 437.490
SEEDS 31 Jul 19:49:38 19:51:08 12° 64° (ENE) 19:52:51 437.485
CUTE 1.7 + AOD 2 31 Jul 19:50:31 19:52:54 15° 65° (ENE) 19:55:29 437.475
VERMONT LUNAR 31 Jul 19:52:51 19:55:55 45° 165° (SSE) 19:58:59 437.305
PCSat 31 Jul 19:55:09 20:00:06 36° 249° (WSW) 20:04:59 145.827
CANX-2 31 Jul 19:58:02 20:01:06 20° 67° (ENE) 20:04:19 2200.000
PHONESAT 2.4 31 Jul 19:58:20 19:59:58 13° 148° (SSE) 20:01:40 2401.200-2431.200
PRISM 31 Jul 20:11:18 20:15:21 54° 100° (E) 20:19:22 437.425
AAUSAT CUBESAT 2 31 Jul 20:16:35 20:19:01 16° 66° (ENE) 20:21:37 437.432
HO-68 31 Jul 20:22:03 20:28:57 56° 68° (ENE) 20:35:56 435.675
CUTE-I 31 Jul 20:24:00 20:25:52 11° 274° (W) 20:27:22 437.470
CUBESAT XI-V 31 Jul 20:26:54 20:30:43 25° 292° (WNW) 20:34:26 437.345
SO-50 31 Jul 20:28:40 20:31:23 14° 251° (WSW) 20:33:50 436.795
BRITE-PL 31 Jul 20:34:23 20:38:43 50° 261° (W) 20:42:50 437.365/2234.400
DOVE 4 31 Jul 20:39:30 20:43:36 61° 75° (ENE) 20:47:42 437.250
STRAND 1 31 Jul 20:41:19 20:46:25 67° 286° (WNW) 20:51:27 437.568
GOMX 1 31 Jul 20:48:12 20:52:25 61° 259° (W) 20:56:32 467.674
CINEMA 3 31 Jul 20:53:18 20:57:06 37° 71° (ENE) 21:01:01 145.822/145.860
ZACube-1 31 Jul 20:53:54 20:54:57 11° 63° (ENE) 20:56:14 437.345
COMPASS 1 31 Jul 21:08:06 21:12:16 66° 76° (ENE) 21:16:29 437.405
FUNcube-1 31 Jul 21:13:58 21:16:43 18° 66° (ENE) 21:19:39 145.935
UWE-3 31 Jul 21:14:01 21:17:19 23° 68° (ENE) 21:20:45 435.000/436.395/437.385
Cosmos 2499 31 Jul 21:15:18 21:22:17 27° 277° (W) 21:29:04 435.465 / 435.565
SEEDS 31 Jul 21:22:12 21:26:25 67° 259° (WSW) 21:30:41 437.485
CUTE 1.7 + AOD 2 31 Jul 21:24:17 21:28:26 50° 261° (W) 21:32:38 437.475
ISS 31 Jul 21:26:09 21:29:07 34° 138° (SE) 21:32:08 145.825
Oscar 11 31 Jul 21:26:22 21:30:25 40° 72° (ENE) 21:34:31 145.826/435.025
CUBEBUG 2 31 Jul 21:27:42 21:31:36 41° 72° (ENE) 21:35:40 437.445
VERMONT LUNAR 31 Jul 21:29:21 21:32:32 73° 181° (S) 21:35:42 437.305
CANX-2 31 Jul 21:32:51 21:36:49 36° 263° (W) 21:40:48 2200.000
PHONESAT 2.4 31 Jul 21:34:05 21:37:26 43° 162° (SSE) 21:40:47 2401.200-2431.200
RS-15 31 Jul 21:34:52 21:45:05 51° 112° (ESE) 21:55:46 29.354- 29.394
DELFI C3 31 Jul 21:40:13 21:43:57 37° 72° (ENE) 21:47:45 145.870
HUMSAT D 31 Jul 21:43:35 21:46:01 16° 66° (ENE) 21:48:38 437.325/437.525
PRISM 31 Jul 21:48:15 21:50:22 13° 296° (WNW) 21:52:18 437.425
AAUSAT CUBESAT 2 31 Jul 21:50:12 21:54:15 47° 261° (W) 21:58:21 437.432
DX 1 31 Jul 21:56:24 21:59:08 17° 65° (ENE) 22:02:00 434.975-435.025
VELOX 1 31 Jul 22:09:29 22:11:37 14° 64° (ENE) 22:13:57 145.980
HO-68 31 Jul 22:11:01 22:17:06 28° 267° (W) 22:23:01 435.675
ESTCUBE 1 31 Jul 22:19:26 22:21:18 13° 63° (ENE) 22:23:23 437.505/2401.250
DOVE 4 31 Jul 22:21:10 22:21:55 10° 273° (W) 22:22:24 437.250
ZACube-1 31 Jul 22:26:35 22:30:45 72° 259° (WSW) 22:35:02 437.345
CINEMA 3 31 Jul 22:31:39 22:34:32 18° 269° (W) 22:37:18 145.822/145.860
TIGRISAT 31 Jul 22:38:06 22:40:30 14° 89° (E) 22:43:08 435.000
ANTELSAT 31 Jul 22:39:27 22:42:09 15° 90° (E) 22:45:01 437.575/2403.000
M-CUBED/EXP-1 PRIME 31 Jul 22:41:41 22:46:24 53° 104° (ESE) 22:50:59 437.505
COMPASS 1 31 Jul 22:47:37 22:48:28 10° 273° (W) 22:49:03 437.405
FUNcube-1 31 Jul 22:48:48 22:52:45 41° 262° (W) 22:56:48 145.935
UWE-3 31 Jul 22:50:02 22:53:44 30° 265° (W) 22:57:29 435.000/436.395/437.385
ISS 31 Jul 23:02:34 23:05:33 32° 335° (NNW) 23:08:33 145.825
UKube-1 31 Jul 23:03:15 23:07:34 79° 76° (ENE) 23:11:54 .
Oscar 11 31 Jul 23:03:45 23:06:49 18° 269° (W) 23:09:44 145.826/435.025
AISAT 31 Jul 23:04:16 23:08:32 52° 73° (ENE) 23:12:50 437.250
CUBEBUG 2 31 Jul 23:05:51 23:08:35 16° 270° (W) 23:11:13 437.445
VERMONT LUNAR 31 Jul 23:06:07 23:09:07 39° 198° (SSW) 23:12:05 437.305
50 SAT 31 Jul 23:11:23 23:15:14 70° 76° (ENE) 23:19:10 437.505
AUBIESAT-1 31 Jul 23:11:30 23:16:18 90° 289° (WNW) 23:20:57 437.475
PHONESAT 2.4 31 Jul 23:11:45 23:15:15 75° 181° (S) 23:18:46 2401.200-2431.200
Cosmos 2491 31 Jul 23:14:47 23:22:49 40° 71° (ENE) 23:30:56 435.465 / 435.565
DELFI C3 31 Jul 23:16:25 23:19:12 17° 269° (W) 23:21:52 145.870
HUMSAT D 31 Jul 23:17:25 23:21:24 45° 261° (W) 23:25:27 437.325/437.525
CUBEBUG 1 31 Jul 23:20:03 23:24:08 42° 72° (ENE) 23:28:15 437.445
UNISAT 6 31 Jul 23:29:32 23:34:07 50° 99° (E) 23:38:42 437.425
DX 1 31 Jul 23:30:52 23:35:03 46° 261° (W) 23:39:15 434.975-435.025
POLYITAN 1 31 Jul 23:31:05 23:34:07 19° 92° (E) 23:37:17 437.675
AIST 1 31 Jul 23:35:48 23:40:01 57° 79° (E) 23:44:12
YUBILEINY 31 Jul 23:38:44 23:44:53 23° 81° (E) 23:51:24 435.215
VELOX 1 31 Jul 23:43:21 23:47:43 61° 259° (WSW) 23:52:06 145.980
BEESAT 2 31 Jul 23:46:16 23:49:46 28° 115° (ESE) 23:53:22 435.950
RS-15 31 Jul 23:46:56 23:57:34 52° 316° (NW) 00:08:35 29.354- 29.394
POPSAT HIP 1 31 Jul 23:47:51 23:51:31 28° 95° (E) 23:55:16 437.405
ESTCUBE 1 31 Jul 23:53:08 23:57:39 71° 258° (WSW) 00:02:12 437.505/2401.250
BUGSAT 1 31 Jul 23:54:42 23:57:41 20° 93° (E) 00:00:48 437.445
QB50P2 31 Jul 23:55:14 23:59:10 35° 97° (E) 00:03:07 145.880/145.840
SPROUT 31 Jul 23:58:00 00:01:46 32° 70° (ENE) 00:05:35 437.525
TISAT 1 01 Aug 00:11:40 00:15:12 28° 69° (ENE) 00:18:48 437.305
TIGRISAT 01 Aug 00:13:03 00:17:41 60° 286° (WNW) 00:22:19 435.000
ANTELSAT 01 Aug 00:14:42 00:19:18 56° 287° (WNW) 00:23:54 437.575/2403.000
M-CUBED/EXP-1 PRIME 01 Aug 00:17:15 00:20:46 20° 300° (WNW) 00:24:09 437.505
DUCHIFAT 1 01 Aug 00:20:05 00:24:18 64° 101° (E) 00:28:31 145.980
QB50P1 01 Aug 00:23:00 00:27:17 73° 103° (ESE) 00:31:32 145.935-145.965
NANOSAT C BR1 01 Aug 00:24:24 00:28:39 74° 101° (E) 00:32:55 145.865
BEESAT 3 01 Aug 00:26:05 00:30:10 81° 303° (WNW) 00:34:17 437.485
